Location: Hickory_CSC
(35.7330°N, 81.3330°W)
Time: 20:32:32
(UTC-05:00)

ISS - All Passes

Search period start: 18 December 2014 00:00
Search period end: 28 December 2014 00:00
Orbit: 404 x 415 km, 51.6° (Epoch: 18 December)

Date Brightness Start Highest point End Pass type
(mag) Time Alt. Az. Time Alt. Az. Time Alt. Az.
18 Dec - 13:56:49 10° SSW 13:59:54 39° SE 14:03:00 10° ENE daylight
18 Dec - 15:34:02 10° W 15:36:35 20° NNW 15:39:09 10° NNE daylight
18 Dec - 20:27:52 10° NNW 20:30:08 17° NNE 20:32:25 10° ENE night (unlit)
18 Dec - 22:03:44 10° WNW 22:06:55 51° SW 22:10:05 10° SSE night (unlit)
19 Dec - 13:06:55 10° S 13:09:22 19° SE 13:11:49 10° E daylight
19 Dec - 14:42:44 10° WSW 14:45:46 34° NW 14:48:49 10° NNE daylight
19 Dec - 19:37:56 10° N 19:39:12 12° NNE 19:40:28 10° NE visible
19 Dec - 21:13:00 10° NW 21:16:16 75° NE 21:19:31 10° SE night (unlit)
20 Dec - 13:51:42 10° WSW 13:54:59 66° NW 13:58:16 10° NE daylight
20 Dec - 15:31:02 10° NW 15:32:05 11° NNW 15:33:08 10° N daylight
20 Dec - 20:22:24 10° NNW 20:25:29 37° NE 20:28:32 10° ESE night (unlit)
20 Dec - 21:59:37 10° W 22:01:49 17° SW 22:04:01 10° S night (unlit)
21 Dec - 13:00:58 10° SW 13:04:13 59° SE 13:07:28 10° NE daylight
21 Dec - 14:38:51 10° WNW 14:41:02 16° NNW 14:43:13 10° NNE daylight
21 Dec - 19:31:55 10° NNW 19:34:33 22° NNE 19:37:10 10° E visible
21 Dec - 21:08:10 10° WNW 21:11:10 34° SW 21:14:09 10° SSE night (unlit)
22 Dec - 12:10:36 10° SSW 12:13:28 28° SE 12:16:20 10° ENE daylight
22 Dec - 13:47:11 10° W 13:50:00 25° NNW 13:52:50 10° NNE daylight
22 Dec - 18:41:35 10° N 18:43:29 14° NNE 18:45:22 10° ENE visible
22 Dec - 20:17:07 10° NW 20:20:23 74° SW 20:23:38 10° SE night (unlit)
23 Dec - 11:20:54 10° SSE 11:22:44 14° SE 11:24:34 10° E daylight
23 Dec - 12:55:49 10° WSW 12:59:00 45° NW 13:02:12 10° NE daylight
23 Dec - 19:26:15 10° NW 19:29:28 52° NE 19:32:40 10° ESE visible
23 Dec - 21:04:24 10° WSW 21:05:40 12° SW 21:06:56 10° SSW night (unlit)
24 Dec - 12:04:44 10° SW 12:08:01 87° SE 12:11:20 10° NE daylight
24 Dec - 13:43:17 10° WNW 13:44:59 13° NNW 13:46:41 10° N daylight
24 Dec - 18:35:31 10° NNW 18:38:25 28° NE 18:41:18 10° E visible
24 Dec - 20:12:12 10° WNW 20:14:53 23° SW 20:17:33 10° S visible
25 Dec - 11:13:58 10° SSW 11:17:04 40° SE 11:20:12 10° ENE daylight
25 Dec - 12:51:13 10° W 12:53:45 20° NNW 12:56:17 10° NNE daylight
25 Dec - 17:44:54 10° NNW 17:47:13 18° NNE 17:49:32 10° ENE visible
25 Dec - 19:20:48 10° WNW 19:23:58 49° SW 19:27:08 10° SSE visible
26 Dec - 10:23:40 10° S 10:26:09 20° SE 10:28:38 10° E daylight
26 Dec - 11:59:30 10° WSW 12:02:32 33° NW 12:05:34 10° NNE daylight
26 Dec - 16:54:34 10° N 16:55:54 12° NNE 16:57:13 10° NE daylight
26 Dec - 18:29:39 10° NW 18:32:56 76° NE 18:36:11 10° SE visible
27 Dec - 11:08:05 10° WSW 11:11:21 65° NW 11:14:38 10° NE daylight
27 Dec - 12:47:25 10° NW 12:48:27 11° NNW 12:49:28 10° N daylight
27 Dec - 17:38:39 10° NNW 17:41:45 37° NE 17:44:49 10° ESE daylight
27 Dec - 19:15:53 10° W 19:18:04 17° SW 19:20:15 10° S visible
